Regional Weather Roundup
Issued by NWS

Home | Current Version | Previous Version | Text Only | Print | Product List | Glossary Off
Versions: 1 2 3 4 5 6 7 8 9 10 11 12 13 14 15 16 17 18 19 20 21 22 23 24 25 26 27 28 29 30 31 32 33 34 35 36 37 38 39 40 41 42 43 44 45 46 47 48 49 50

000
ASUS43 KMKX 251000
RWRWI

WISCONSIN REGIONAL WEATHER ROUNDUP
NATIONAL WEATHER SERVICE MILWAUKEE/SULLIVAN WI
400 AM CST THU DEC 25 2014

NOTE: "FAIR" INDICATES FEW OR NO CLOUDS BELOW 12,000 FEET WITH NO
SIGNIFICANT WEATHER AND/OR OBSTRUCTIONS TO VISIBILITY.

WIZ001-002-006>008-014>016-023>028-251100-
NORTHWEST WISCONSIN

CITY           SKY/WX    TMP DP  RH WIND       PRES   REMARKS
SUPERIOR ARPT  CLOUDY    32  29  86 SW12      29.54S WCI  23
ASHLAND        CLOUDY    33  29  85 SW13G18   29.55S WCI  24
HAYWARD        CLOUDY    31  27  85 SW9       29.57R WCI  23
SIREN          CLOUDY    31  29  92 SW8       29.58F WCI  24
CUMBERLAND     CLOUDY    30  28  93 SW12      29.59S WCI  21
RICE LAKE      CLOUDY    31  28  88 SW10      29.62R WCI  22
CHETEK         CLOUDY    31  28  90 SW6       29.62R WCI  25
LADYSMITH      CLOUDY    32  29  88 SW13      29.61R WCI  22
EAU CLAIRE     CLOUDY    32  27  81 SW8       29.64R WCI  25
MENOMONIE      CLOUDY    32  29  88 SW7       29.64R WCI  26
NEW RICHMOND   CLOUDY    31  29  93 SW9       29.62S WCI  23
OSCEOLA        CLOUDY    32  31  96 S5        29.63F WCI  27
$$

WIZ003>005-009-010-017-018-251100-
NORTH CENTRAL WISCONSIN

CITY           SKY/WX    TMP DP  RH WIND       PRES   REMARKS
MANITOWISH WTR CLOUDY    29  28  96 SW9       29.54R WCI  21
ARBOR VITAE    CLOUDY    32  29  89 W10G17    29.55R WCI  23
WOODRUFF       CLOUDY    32  29  89 W10G17    29.55R WCI  23
RHINELANDER    CLOUDY    29  26  89 W10       29.56R WCI  20
EAGLE RIVER    CLOUDY    30  28  94 W15G23    29.53R WCI  19
LAND O LAKES   CLOUDY    31  30  95 W9        29.53R WCI  23
PHILLIPS       CLOUDY    30  28  90 SW7       29.56R WCI  23
TOMAHAWK       CLOUDY    30  27  90 CALM      29.58R
MEDFORD        CLOUDY    31  28  91 SW9G16    29.59R WCI  23
MERRILL        CLOUDY    31  28  90 W7        29.59R WCI  24
$$

WIZ029-030-035-036-043>047-251100-
CENTRAL WISCONSIN

CITY           SKY/WX    TMP DP  RH WIND       PRES   REMARKS
WAUSAU         CLOUDY    32  28  85 SW9       29.60R WCI  24
MOSINEE        CLOUDY    32  32 100 SW9       29.61R WCI  24
MARSHFIELD     CLOUDY    32  28  85 W12       29.63R WCI  23
STEVENS POINT  CLOUDY    31  27  86 SW8       29.63R WCI  24
WAUPACA        MOCLDY    34  30  84 SW8       29.65R WCI  27
WAUTOMA        NOT AVBL
WISC RAPIDS    CLOUDY    33  28  81 W12       29.66R WCI  24
CAMP DOUGLAS   CLOUDY    32  32 100 W8        29.68R WCI  25
$$

WIZ011>013-019>022-031-037>040-048>050-251100-
NORTHEAST WISCONSIN

CITY           SKY/WX    TMP DP  RH WIND       PRES   REMARKS
ANTIGO         CLOUDY    29  27  92 W9        29.58R WCI  21
SHAWANO        CLEAR     32  29  89 W5        29.62R WCI  28
OCONTO         MOCLDY    32  31  95 W7        29.60R WCI  25
STURGEON BAY   CLOUDY    32  27  80 W12       29.61R WCI  23
GREEN BAY      CLEAR     33  29  85 W9        29.64R WCI  25
MANITOWOC      NOT AVBL
APPLETON       CLEAR     32  30  93 SW10      29.64R WCI  24
CLINTONVILLE   CLEAR     32  28  86 W5        29.62R WCI  27
OSHKOSH        CLOUDY    34  29  82 W8        29.66R WCI  27
$$

WIZ032>034-041-042-053>061-251100-
SOUTHWEST WISCONSIN

CITY           SKY/WX    TMP DP  RH WIND       PRES   REMARKS
LA CROSSE      CLOUDY    33  27  78 SW13      29.70R WCI  24
SPARTA         CLOUDY    32  28  86 SW7       29.69S WCI  26
VIROQUA        CLOUDY    31  31 100 SW14G22   29.68S WCI  21
BOSCOBEL       CLOUDY    34  28  79 SW8       29.74S WCI  27
PRAIRIE DU CHI CLOUDY    32  27  80 SW8       29.75R WCI  25
PLATTEVILLE    CLOUDY    32  29  90 SW20      29.76R WCI  20
$$

WIZ056-057-062-063-064-067-068-251100-
SOUTH CENTRAL WISCONSIN

CITY           SKY/WX    TMP DP  RH WIND       PRES   REMARKS
REEDSBURG      CLOUDY    32  29  89 W9        29.70R WCI  24
BARABOO/DELLS  CLOUDY    32  29  88 W13       29.69R WCI  23
LONE ROCK      NOT AVBL
MINERAL POINT  CLOUDY    32  30  93 W14G21    29.72R WCI  22
MADISON        CLOUDY    34  28  79 SW8       29.72R WCI  27
MIDDLETON      CLOUDY    35  29  80 W13       29.72R WCI  26
WATERTOWN      CLOUDY    34  28  80 SW9       29.71R WCI  26
MONROE         CLOUDY    32  30  93 SW18      29.73S WCI  20
JANESVILLE     CLOUDY    34  30  86 W13G18    29.74R WCI  25
$$

WIZ051-052-058>065-066-070>072-251100-
SOUTHEAST WISCONSIN

CITY           SKY/WX    TMP DP  RH WIND       PRES   REMARKS
MILWAUKEE      MOCLDY    36  27  69 W13G21    29.72R WCI  27
WAUKESHA       CLOUDY    32  28  86 W12       29.72R WCI  23
MILWAUKEE/TIMM CLOUDY    34  28  80 W10       29.71R WCI  26
RACINE         CLOUDY    36  28  73 W13       29.74R WCI  27
BURLINGTON     CLOUDY    33  28  84 W10G16    29.73R WCI  24
KENOSHA        CLOUDY    35  28  75 W14       29.74R WCI  26
FOND DU LAC    CLOUDY    34  28  79 W7        29.68R WCI  28
SHEBOYGAN      CLOUDY    34  29  82 W13       29.67R WCI  25
WEST BEND      CLOUDY    34  28  80 W10       29.68R WCI  26
JUNEAU         CLOUDY    33  30  89 SW10      29.70R WCI  25
$$

LSZ147-162-251100-
LAKE SUPERIOR

STATION/POSITION TIME  TEMP    WIND        PRES    WAVE
                       AIR SEA DIR/SP/G            HT/PER
                 (UTC) (F)     (DEG/KT/KT) (MB)    (FT/S)
DEVILS ISLAND    0900   34     230/ 16/ 19 1000.3R
PORT WING        0900   33     210/  5/  7 1000.7R
SAXON HARBOR     0900   33     190/  4/  7 1001.0R
$$

LMZ867-665-643>646-251100-
LAKE MICHIGAN

STATION/POSITION TIME  TEMP    WIND        PRES    WAVE
                       AIR SEA DIR/SP/G            HT/PER
                 (UTC) (F)     (DEG/KT/KT) (MB)    (FT/S)
CHAMBERS ISLAND  0900   33     230/  8/ 14 1001.4R
NORTHPORT PIER   0900   34     260/  5/ 10 1000.7R
SISTER BAY       0913          280/ 16/ 19   N/A
ALGOMA LAKESHORE 0914          270/  9/ 13   N/A
KEWAUNEE LAKESHO 0900   34     270/ 10/ 13 1001.7R
SHEBOYGAN LAKESH 0900   35 37  270/ 10/ 12 1004.7R
PORT WASHINGTON  0900   36     260/  7/ 13 1005.4R
MILWAUKEE LAKESH 0900   36     280/ 14/ 16   N/A
KENOSHA   LAKESH 0900   37     270/  9/ 19 1006.8R
$$

TC  - TEMPERATURE IN CELSIUS
VSB - VISIBILITY IN STATUTE MILES
WCI - WIND CHILL INDEX
HX  - HEAT INDEX




USA.gov is the U.S. government's official web portal to all federal, state and local government web resources and services.